Regional Weather Roundup
Issued by NWS

Home | Current Version | Previous Version | Text Only | Print | Product List | Glossary On
Versions: 1 2 3 4 5 6 7 8 9 10 11 12 13 14 15 16 17 18 19 20 21 22 23 24 25 26 27 28 29 30 31 32 33 34 35 36 37 38 39 40 41 42 43 44 45 46 47 48 49 50
000
ASUS45 KABQ 240301
RWRNM
NEW MEXICO REGIONAL WEATHER ROUNDUP
NATIONAL WEATHER SERVICE ALBUQUERQUE NM
900 PM MDT SUN APR 23 2017

NOTE: "FAIR" MEANS FEW OR NO CLOUDS BELOW 12,000 FEET AGL WITH NO
       SIGNIFICANT WEATHER OR OBSTRUCTIONS TO VISION.

      THIS PRODUCT IS RELEASED AS TWO VERSIONS.  ONE VERSION NEAR
      THE TOP OF THE HOUR CONTAINING PRELIMINARY DATA FROM ALBUQUERQUE
      AND OTHER STATIONS.  A FINAL VERSION WITH ADDITIONAL DATA IS
      ISSUED ABOUT 10 MINUTES AFTER THE HOUR.

NMZ501-503-504-510>518-240400-
NORTHWEST PLATEAU/NORTHCENTRAL MOUNTAINS

CITY           SKY/WX    TMP DP  RH WIND       PRES   REMARKS
FARMINGTON     FAIR      66  17  15 SW14      29.82R
LOS ALAMOS     FAIR      61  29  30 SW12      30.00R
SANTA FE       FAIR      62  30  29 SW9       29.94R
TAOS             N/A     59  27  29 SW12      29.96R
ANGEL FIRE     FAIR      53  24  32 S8        30.02R

$$
NMZ402-403-502-505>509-240400-
WESTCENTRAL MOUNTAINS/SOUTHWEST MOUNTAINS

CITY           SKY/WX    TMP DP  RH WIND       PRES   REMARKS
GALLUP         FAIR      62  17  17 SW8       29.96R
GRANTS         FAIR      60  12  14 NW6       29.98R
SILVER CITY    FAIR      64  32  30 E6        29.97R

$$
NMZ407-409-411-412-240400-
SOUTHERN DESERTS

CITY           SKY/WX    TMP DP  RH WIND       PRES   REMARKS
DEMING         FAIR      68  30  24 E5        29.90R
LAS CRUCES     FAIR      69  30  23 SE5       29.94R
HOLLOMAN AFB   FAIR      72  29  20 S13       29.94S
ALAMOGORDO     FAIR      61  32  33 S12       29.93R
T OR C         FAIR      72  30  21 S12       29.90R

$$
NMZ519>523-240400-
CENTRAL VALLEYS/CENTRAL HIGHLANDS

CITY           SKY/WX    TMP DP  RH WIND       PRES   REMARKS
ALBUQUERQUE    FAIR      68  29  23 S22       29.89R
DOUBLE EAGLE   CLEAR     64  34  32 S16G22    29.91
MORIARTY ARPT  FAIR      59  31  35 S9        29.96S
CLINES CORNERS FAIR      55  28  35 SW18      30.01R
BELEN          FAIR      67  28  23 S15       29.89R
SOCORRO        FAIR      66  30  25 S9        29.91R

$$
NMZ524>526-539-540-240400-
SOUTHCENTRAL MOUNTAINS

CITY           SKY/WX    TMP DP  RH WIND       PRES   REMARKS
RUIDOSO        NOT AVBL

$$
NMZ527>531-240400-
NORTHEAST HIGHLANDS/NORTHEAST PLAINS

CITY           SKY/WX    TMP DP  RH WIND       PRES   REMARKS
LAS VEGAS      FAIR      57  29  34 S14       29.97R
RATON          FAIR      57  32  38 S17       29.87R
CLAYTON        FAIR      61  34  36 S18       29.86S

$$
NMZ532>537-240400-
EASTCENTRAL PLAINS

CITY           SKY/WX    TMP DP  RH WIND       PRES   REMARKS
SANTA ROSA     FAIR      62  32  32 S18G24    29.91R
TUCUMCARI      FAIR      67  34  29 S25G36    29.85R
CANNON AFB     FAIR      56  36  45 S12       29.95S
CLOVIS AIRPORT FAIR      55  34  44 S10       29.96R

$$
NMZ028-029-538-240400-
SOUTHEAST PLAINS

CITY           SKY/WX    TMP DP  RH WIND       PRES   REMARKS
ROSWELL        FAIR      65  31  28 S18       29.92S
ARTESIA        FAIR      64  34  32 S15       29.94R
CARLSBAD       FAIR      64  32  30 SE8       29.95R
HOBBS          FAIR      55  32  41 SE7       29.99S


$$




USA.gov is the U.S. government's official web portal to all federal, state and local government web resources and services.